METEOR 2-11 DEB

Satellite information

Favourite Embed

Satellite Type and Status

DEBRISIN ORBIT

Key statistics

Satellite METEOR 2-11 DEB at a glance.

Uptime

15137

Days in orbit

Revolutions

≈ 14.0

Per day

Orbit

LEO

Low Earth Orbit

Inclination

82.5

Latest

Satellite identification and parameters

Extended collection of information and parameters for METEOR 2-11 DEB.

Object identification

Identified? True

Debris? True

Object name: METEOR 2-11 DEB

International designator: 1984-072R

Object number (NORAD): 42455

Object ID (CCSDS): 42455

Country: COMMONWEALTH OF INDEPENDENT STATES (CIS)

Current information (Y/N): Y

RCS size: SMALL

Orbital parameters

Period: 103.161 minutes

Inclination: 82.5251 deg

SMA: 7286.263 km

Apoapsis: 911.923 km

Periapsis: 904.333 km

RAAN: 168.2447 deg

Eccentricy: 0.00052086

Argument of periapsis: 198.7395 deg

Mean anomaly: 161.3581 deg

Mean motion: 13.95871627 rev/day

Mean motion (dot): 0.00002386 rev/day2

B* drag term: 0.0017354068 1/REarth

Two-line elements (TLE)

Creation date: Dec. 13, 2025, 5:47 p.m.

Reference frame: TEME

Reference center: EARTH

Epoch: Dec. 13, 2025, 5:19 a.m. UTC

TLE line 0: 0 METEOR 2-11 DEB

TLE line 1: 1 42455U 84072R 25347.22155118 .00002386 00000-0 17354-2 0 9998

TLE line 2: 2 42455 82.5251 168.2447 0005209 198.7395 161.3581 13.95871627534012

Live tracking on map

Real-time ground track for satellite METEOR 2-11 DEB.

In-orbit conjunctions

A list of the most updated potential collisions computed for object METEOR 2-11 DEB.

Target Orbit TCA Probability of collision Miss distance Type
GGSE 4 LEO 2025-05-05 18:54:35 0.0001551115 980.0 (m) PAYLOAD

Associated space launch

Second generation soviet meteorological satellite

METEOR 2-11 DEB was lifted into orbit during the mission ‘Tsiklon-3 | Meteor-2 11’, on board a Tsiklon-3 space rocket.

The launch took place on July 5, 1984, 3:35 a.m. from 32/2.

For more information about the launch, click the button.

Launch to space Tsiklon-3 | Meteor-2 11
Tsiklon-3 | Meteor-2 11

Agency: N/A

Status: Launch Successful

Launch date: July 5, 1984, 3:35 a.m. UTC

Rocket: Tsiklon-3

Launch pad: 32/2

Location: Plesetsk Cosmodrome, Russian Federation

...

Latest news about this satellite

There are no fresh news available about this satellite. Check back as we update our databases every day.


Newsletter sign-up

Weekly statistics, charts and insights to help you stay on top of the space industry.